TimeMST,TemperatureF,Dew PointF,Humidity,Sea Level PressureIn,VisibilityMPH,Wind Direction,Wind SpeedMPH,Gust SpeedMPH,PrecipitationIn,Events,Conditions,WindDirDegrees,DateUTC
12:00 AM,44.6,37.4,76,29.58,10.0,NW,20.7,27.6,N/A,,Mostly Cloudy,310,2012-11-10 07:00:00
12:53 AM,43.0,37.0,80,29.49,10.0,Variable,6.9,23.0,0.00,Rain,Light Rain,0,2012-11-10 07:53:00
1:46 AM,41.0,37.4,87,29.60,10.0,NW,13.8,18.4,0.00,Rain,Light Rain,310,2012-11-10 08:46:00
1:53 AM,39.9,37.9,93,29.50,10.0,NW,15.0,-,0.00,Rain,Light Rain,310,2012-11-10 08:53:00
2:13 AM,39.2,37.4,93,29.60,10.0,NW,17.3,-,0.00,Rain,Light Rain,320,2012-11-10 09:13:00
2:53 AM,37.9,36.0,93,29.51,10.0,NW,17.3,-,0.00,Rain,Light Rain,310,2012-11-10 09:53:00
3:53 AM,39.0,35.1,86,29.51,10.0,WNW,10.4,-,0.00,,Overcast,300,2012-11-10 10:53:00
4:53 AM,39.9,34.0,79,29.52,10.0,East,4.6,-,N/A,,Overcast,80,2012-11-10 11:53:00
5:53 AM,41.0,30.9,67,29.52,10.0,SSW,4.6,-,N/A,,Overcast,210,2012-11-10 12:53:00
6:53 AM,39.0,21.0,49,29.55,10.0,West,6.9,-,N/A,,Scattered Clouds,280,2012-11-10 13:53:00
7:53 AM,33.1,21.9,64,29.60,10.0,WNW,4.6,-,N/A,,Clear,300,2012-11-10 14:53:00
8:53 AM,41.0,12.0,31,29.59,10.0,WSW,16.1,-,N/A,,Clear,240,2012-11-10 15:53:00
9:53 AM,37.9,26.1,62,29.62,10.0,WNW,29.9,35.7,N/A,,Mostly Cloudy,300,2012-11-10 16:53:00
10:53 AM,41.0,21.9,47,29.61,10.0,WNW,16.1,-,N/A,,Mostly Cloudy,290,2012-11-10 17:53:00
11:53 AM,39.0,19.0,45,29.64,10.0,WNW,8.1,-,N/A,,Scattered Clouds,290,2012-11-10 18:53:00
12:53 PM,43.0,18.0,37,29.62,10.0,WNW,15.0,24.2,N/A,,Mostly Cloudy,290,2012-11-10 19:53:00
1:53 PM,43.0,14.0,31,29.63,10.0,West,13.8,21.9,N/A,,Partly Cloudy,280,2012-11-10 20:53:00
2:53 PM,43.0,15.1,32,29.65,10.0,NW,8.1,-,N/A,,Mostly Cloudy,320,2012-11-10 21:53:00
3:53 PM,37.9,23.0,55,29.70,10.0,East,11.5,-,N/A,,Overcast,100,2012-11-10 22:53:00
4:53 PM,35.1,21.0,57,29.74,10.0,NW,15.0,-,N/A,,Overcast,310,2012-11-10 23:53:00
5:32 PM,30.2,28.4,93,29.78,2.0,NNW,21.9,-,0.00,Snow,Light Snow,330,2012-11-11 00:32:00
5:35 PM,30.2,28.4,93,29.78,1.5,NNW,18.4,-,0.00,Snow,Light Snow,340,2012-11-11 00:35:00
5:46 PM,30.2,30.2,100,29.79,2.0,NNW,13.8,-,0.00,Snow,Light Snow,330,2012-11-11 00:46:00
5:53 PM,30.0,30.0,100,29.80,3.0,WNW,12.7,-,0.00,Snow,Light Snow,300,2012-11-11 00:53:00
5:55 PM,30.2,30.2,100,29.80,2.5,WNW,15.0,-,0.01,Snow,Light Snow,300,2012-11-11 00:55:00
6:04 PM,30.2,30.2,100,29.80,1.2,NW,12.7,-,0.01,Snow,Light Snow,320,2012-11-11 01:04:00
6:16 PM,28.4,28.4,100,29.80,1.0,WNW,11.5,-,0.02,Snow,Light Snow,300,2012-11-11 01:16:00
6:18 PM,28.4,28.4,100,29.80,0.8,WNW,12.7,-,0.02,Snow,Light Snow,300,2012-11-11 01:18:00
6:33 PM,28.4,28.4,100,29.80,1.0,WNW,6.9,-,0.03,Snow,Light Snow,290,2012-11-11 01:33:00
6:48 PM,30.2,30.2,100,29.81,1.2,West,4.6,-,0.04,Snow,Light Snow,280,2012-11-11 01:48:00
6:53 PM,28.9,28.9,100,29.82,1.0,WNW,4.6,-,0.04,Snow,Light Snow,290,2012-11-11 01:53:00
7:09 PM,28.4,28.4,100,29.81,0.5,NW,10.4,-,0.02,Fog-Snow,Snow,310,2012-11-11 02:09:00
7:19 PM,28.4,28.4,100,29.81,0.5,NW,11.5,-,0.04,Fog-Snow,Snow,320,2012-11-11 02:19:00
7:53 PM,28.0,28.0,100,29.86,0.8,SW,4.6,-,0.09,Snow,Light Snow,230,2012-11-11 02:53:00
8:00 PM,28.4,28.4,100,29.82,1.0,SW,3.5,-,0.01,Snow,Light Snow,230,2012-11-11 03:00:00
8:03 PM,28.4,28.4,100,29.82,1.2,WSW,5.8,-,0.01,Snow,Light Snow,240,2012-11-11 03:03:00
8:07 PM,28.4,28.4,100,29.83,3.0,West,8.1,-,0.01,Snow,Light Snow,260,2012-11-11 03:07:00
8:16 PM,28.4,28.4,100,29.83,9.0,SW,3.5,-,0.01,,Overcast,220,2012-11-11 03:16:00
8:53 PM,28.4,28.4,100,29.85,8.0,North,4.6,-,N/A,Snow,Light Snow,360,2012-11-11 03:53:00
9:43 PM,28.4,26.6,93,29.87,1.8,NE,12.7,-,N/A,Snow,Light Snow,50,2012-11-11 04:43:00
9:53 PM,27.0,27.0,100,29.89,1.8,NE,10.4,-,0.00,Snow,Light Snow,40,2012-11-11 04:53:00
10:01 PM,26.6,26.6,100,29.87,0.8,NE,16.1,-,0.00,Snow,Light Snow,40,2012-11-11 05:01:00
10:22 PM,26.6,26.6,100,29.87,0.8,NE,12.7,-,0.01,Snow,Light Snow,40,2012-11-11 05:22:00
10:30 PM,26.6,26.6,100,29.88,1.5,NE,11.5,-,0.01,Snow,Light Snow,40,2012-11-11 05:30:00
10:36 PM,26.6,26.6,100,29.88,3.0,NE,10.4,-,0.01,Snow,Light Snow,50,2012-11-11 05:36:00
10:53 PM,27.0,25.0,92,29.89,5.0,NE,8.1,-,0.01,Snow,Light Snow,50,2012-11-11 05:53:00
11:53 PM,27.0,25.0,92,29.92,10.0,NE,6.9,-,0.00,,Overcast,50,2012-11-11 06:53:00